Location: Kermapucano
(48.0667°N, 3.3000°W)
Time: 20:41:03
(UTC+00:00)

SKYMED 3 - Pass Details

Date: 29 November 2020
Orbit: 621 x 623 km, 97.9° (Epoch: 27 January)

Event Time Altitude Azimuth Distance (km) Brightness Sun altitude
Rises 05:22:38 0° 168° (SSE) 2,890 8.3 -22.2°
Reaches altitude 10° 05:24:48 10° 169° (S) 1,989 7.4 -21.9°
Maximum altitude 05:29:08 80° 257° (WSW) 639 4.4 -21.2°
Enters shadow 05:31:05 33° 340° (NNW) 1,062 5.5 -20.8°
